Mekoryuk, AK

11:16 AM AKDT on July 28, 2017 (GMT -0800)
Mekoryuk

Weather History for PAMY - October, 2012

Change the Weather History Date:

Wednesday, October 24, 2012

  Actual Average Record
Temperature  
Mean Temperature 30 °F -  
Max Temperature 32 °F 33 °F 48 °F (2016)
Min Temperature 28 °F 25 °F 6 °F (2008)
Degree Days  
Heating Degree Days 35    
Moisture  
Dew Point 21 °F    
Average Humidity 69    
Maximum Humidity 74    
Minimum Humidity 64    
Precipitation  
Precipitation 0.00 in - - ()
Sea Level Pressure  
Sea Level Pressure 30.47 in    
Wind  
Wind Speed 14 mph (ENE)    
Max Wind Speed 18 mph    
Max Gust Speed 18 mph    
Visibility 10 miles    
Events      
Averages and records for this station are not official NWS values.
T = Trace of Precipitation, MM = Missing Value Source: NWS Daily Summary

Daily Weather History Graph

Daily Weather History Graph

Search for Another Location

Airport or City:

Trip Planner

Search our weather history database for the weather conditions in past years. The results will help you decide how hot, cold, wet, or windy it might be!

Date:

Astronomy

Oct. 24, 2012 Rise Set
Actual Time 10:10 AM AKDT 7:27 PM AKDT
Civil Twilight 9:25 AM AKDT 8:11 PM AKDT
Nautical Twilight 8:36 AM AKDT 9:00 PM AKDT
Astronomical Twilight 7:47 AM AKDT 9:48 PM AKDT
Moon 5:49 PM AKDT (10/24) 4:09 AM AKDT (10/24)
Length of Visible Light 10h 45m
Length of Day
9h 16m
Waxing Gibbous, 77% of the Moon is Illuminated
Oct 24
Waxing Gibbous
Oct 29
Full
Nov 6
Last Quarter
Nov 13
New
Nov 20
First Quarter

Hourly Weather History & Observations

Time (AKDT) Temp. Windchill Dew Point Humidity Pressure Visibility Wind Dir Wind Speed Gust Speed Precip Events Conditions
1:56 AM 30.2 °F 18.1 °F 21.2 °F 69% 30.47 in 10.0 mi NE 18.4 mph - N/A   Clear
3:53 AM 28.4 °F 18.5 °F 21.2 °F 74% 30.47 in 10.0 mi ENE 11.5 mph - N/A   Clear
4:53 AM 28.4 °F 18.0 °F 21.2 °F 74% 30.46 in 10.0 mi ENE 12.7 mph 18.4 mph N/A   Clear
5:53 AM 28.4 °F 18.5 °F 21.2 °F 74% 30.46 in 10.0 mi ENE 11.5 mph - N/A   Clear
6:53 AM 28.4 °F 19.7 °F 21.2 °F 74% 30.46 in 10.0 mi ENE 9.2 mph - N/A   Clear
7:53 AM 30.2 °F 20.2 °F 21.2 °F 69% 30.45 in 10.0 mi ENE 12.7 mph - N/A   Clear
8:55 AM 30.2 °F 18.5 °F 19.4 °F 64% 30.47 in 10.0 mi NE 17.3 mph - N/A   Clear
9:51 AM 28.4 °F 17.5 °F 21.2 °F 74% 30.47 in 10.0 mi NE 13.8 mph - N/A   Clear
10:52 AM 30.2 °F 21.3 °F 21.2 °F 69% 30.47 in 10.0 mi ENE 10.4 mph - N/A   Clear
11:52 AM 30.2 °F 20.8 °F 21.2 °F 69% 30.47 in 10.0 mi ENE 11.5 mph - N/A   Clear
1:52 PM 30.2 °F 20.2 °F 21.2 °F 69% 30.47 in 10.0 mi NE 12.7 mph - N/A   Clear
2:50 PM 30.2 °F 19.8 °F 21.2 °F 69% 30.46 in 10.0 mi NE 13.8 mph - N/A   Clear
3:51 PM 32.0 °F 22.5 °F 21.2 °F 64% 30.46 in 10.0 mi NE 12.7 mph - N/A   Clear
4:51 PM 32.0 °F 22.5 °F 21.2 °F 64% 30.48 in 10.0 mi NE 12.7 mph 17.3 mph N/A   Clear
10:16 PM 30.2 °F 19.8 °F 19.4 °F 64% 30.48 in 10.0 mi East 13.8 mph - N/A   Clear
10:36 PM 30.2 °F 19.3 °F 19.4 °F 64% 30.49 in 10.0 mi East 15.0 mph - N/A   Clear
10:56 PM 30.2 °F 20.2 °F 19.4 °F 64% 30.48 in 10.0 mi East 12.7 mph - N/A   Clear
11:16 PM 30.2 °F 19.3 °F 21.2 °F 69% 30.48 in 10.0 mi ENE 15.0 mph - N/A   Clear
11:36 PM 28.4 °F 17.5 °F 19.4 °F 69% 30.49 in 10.0 mi ENE 13.8 mph - N/A   Clear
11:56 PM 30.2 °F 20.2 °F 19.4 °F 64% 30.49 in 10.0 mi ENE 12.7 mph - N/A   Clear